Weather History for North Platte, NE

Change the Weather History Date:

Tuesday, July 31, 2012

  Actual Average Record
Temperature  
Mean Temperature 80 °F 74 °F  
Max Temperature 97 °F 88 °F 107 °F (2002)
Min Temperature 63 °F 61 °F 45 °F (1925)
Degree Days  
Heating Degree Days 0 0  
Month to date heating degree days 0 0  
Since 1 June heating degree days 6 56  
Since 1 July heating degree days 0 5  
Cooling Degree Days 15 10  
Month to date cooling degree days 485 293  
Year to date cooling degree days 886 459  
Since 1 June cooling degree days 807 431  
Growing Degree Days 30 (Base 50)    
Moisture  
Dew Point 64 °F    
Average Humidity 62    
Maximum Humidity 93    
Minimum Humidity 31    
Precipitation  
Precipitation 0.22 in 0.10 in 1.16 in (1919)
Month to date precipitation 0.69 3.07  
Year to date precipitation 8.15 13.93  
Snow  
Snow 0.00 in 0.00 in 0.00 in (2002)
Month to date snowfall 0.0 0.0  
Since 1 June snowfall 0.0 0.0  
Since 1 July snowfall 0.0 0.0  
Snow Depth 0.00 in    
Sea Level Pressure  
Sea Level Pressure 29.93 in    
Wind  
Wind Speed 7 mph (ESE)    
Max Wind Speed 18 mph    
Max Gust Speed 24 mph    
Visibility 10 miles    
Events Rain    
T = Trace of Precipitation, MM = Missing Value Source: NWS Daily Summary

Daily Weather History Graph

Daily Weather History Graph

Search for Another Location

Airport:

Trip Planner

Search our weather history database for the weather conditions in past years. The results will help you decide how hot, cold, wet, or windy it might be!

Date:

Astronomy

Jul. 31, 2012 Rise Set
Actual Time 6:37 AM CDT 8:59 PM CDT
Civil Twilight 6:06 AM CDT 9:30 PM CDT
Nautical Twilight 5:28 AM CDT 10:08 PM CDT
Astronomical Twilight 4:45 AM CDT 10:51 PM CDT
Moon 7:49 PM CDT (7/31) 5:00 AM CDT (7/31)
Length of Visible Light 15h 23m
Length of Day
14h 21m
Waxing Gibbous, 97% of the Moon is Illuminated
Jul 31
Waxing Gibbous
Aug 1
Full
Aug 9
Last Quarter
Aug 17
New
Aug 24
First Quarter

Hourly Weather History & Observations

Time (CDT) Temp. Heat Index Dew Point Humidity Pressure Visibility Wind Dir Wind Speed Gust Speed Precip Events Conditions
12:53 AM 71.1 °F - 64.0 °F 78% 29.98 in 10.0 mi ESE 3.5 mph - N/A   Clear
1:53 AM 71.1 °F - 64.0 °F 78% 29.96 in 10.0 mi East 4.6 mph - N/A   Clear
2:53 AM 70.0 °F - 64.9 °F 84% 29.96 in 10.0 mi Calm Calm - N/A   Clear
3:53 AM 69.1 °F - 64.9 °F 87% 29.95 in 10.0 mi Calm Calm - N/A   Clear
4:53 AM 66.0 °F - 63.0 °F 90% 29.94 in 10.0 mi East 3.5 mph - N/A   Clear
5:53 AM 64.0 °F - 62.1 °F 93% 29.94 in 9.0 mi Calm Calm - N/A   Clear
6:53 AM 64.0 °F - 61.0 °F 90% 29.96 in 6.0 mi Calm Calm - N/A   Clear
7:53 AM 69.1 °F - 64.0 °F 84% 29.97 in 10.0 mi Calm Calm - N/A   Clear
8:53 AM 73.9 °F - 64.9 °F 73% 29.97 in 10.0 mi North 3.5 mph - N/A   Clear
9:53 AM 78.1 °F - 66.0 °F 66% 29.98 in 10.0 mi Variable 3.5 mph - N/A   Clear
10:53 AM 84.9 °F 88.2 °F 68.0 °F 57% 29.95 in 10.0 mi South 6.9 mph - N/A   Clear
11:53 AM 90.0 °F 91.7 °F 64.9 °F 43% 29.94 in 10.0 mi SSW 6.9 mph - N/A   Clear
12:53 PM 91.0 °F 92.6 °F 64.0 °F 41% 29.93 in 10.0 mi Variable 5.8 mph - N/A   Clear
1:53 PM 95.0 °F 97.0 °F 64.4 °F 36% 30.01 in 10.0 mi SSE 9.2 mph - N/A   Clear
2:53 PM 95.0 °F 96.0 °F 63.0 °F 34% 29.89 in 10.0 mi SE 11.5 mph 16.1 mph N/A   Clear
3:53 PM 95.0 °F 97.0 °F 64.0 °F 36% 29.88 in 10.0 mi ESE 16.1 mph 24.2 mph N/A   Clear
4:53 PM 95.0 °F 96.0 °F 63.0 °F 34% 29.88 in 10.0 mi ESE 12.7 mph - N/A   Partly Cloudy
5:53 PM 95.0 °F 95.2 °F 61.0 °F 32% 29.86 in 10.0 mi SE 10.4 mph - N/A   Partly Cloudy
6:53 PM 93.9 °F 94.0 °F 61.0 °F 33% 29.85 in 10.0 mi ESE 15.0 mph - N/A   Clear
7:53 PM 90.0 °F 90.3 °F 62.1 °F 39% 29.85 in 10.0 mi ESE 11.5 mph - N/A   Clear
8:53 PM 82.9 °F 84.6 °F 64.9 °F 54% 29.88 in 10.0 mi ESE 10.4 mph - N/A   Clear
9:53 PM 82.0 °F 83.8 °F 64.9 °F 56% 29.88 in 10.0 mi ESE 15.0 mph 20.7 mph N/A   Clear
10:53 PM 77.0 °F - 66.0 °F 69% 29.91 in 10.0 mi East 9.2 mph - N/A   Clear
11:53 PM 73.9 °F - 66.9 °F 79% 29.91 in 6.0 mi SW 6.9 mph - 0.01 in Rain Light Rain